Simultaneous Nadir Overpasses (SNOs) Predictions

Prediction of SNOs between METOP-A and TERRA Satellite Orbit:

Table of predicted SNOs for the next 14.0 days since TLE Epoch: 7/4/2020
Index Date (METOP-A) Time (METOP-A) Lat,Lon (METOP-A) SZA (METOP-A ) Date (TERRA) Time (TERRA) Lat,Lon (TERRA) SZA (TERRA ) Distance(km) Time Diff (sec)
1 07/05/2020 04:18:18 81.41, 164.63 61.65 07/05/2020 04:18:29 81.39, 164.52 61.64 2.36 11
2 07/05/2020 05:08:58 -81.40, -27.86 118.33 07/05/2020 05:07:56 -81.39, -27.93 118.38 1.99 62
3 07/07/2020 23:52:38 81.40,-128.80 61.95 07/07/2020 23:52:42 81.41,-128.70 61.97 1.91 4
4 07/08/2020 00:43:18 -81.40, 38.74 118.03 07/08/2020 00:42:09 -81.41, 38.88 118.04 2.61 69
5 07/10/2020 18:36:19 -81.41, 130.05 117.75 07/10/2020 18:37:31 -81.40, 129.97 117.72 1.34 72
6 07/10/2020 19:26:59 81.40, -62.24 62.30 07/10/2020 19:26:57 81.41, -62.33 62.30 1.88 2
7 07/10/2020 20:17:30 -81.28, 108.80 117.32 07/10/2020 20:16:18 -81.51, 107.63 117.37 31.79 72
8 07/13/2020 14:10:41 -81.41,-163.77 117.38 07/13/2020 14:11:46 -81.40,-163.65 117.35 2.19 65
9 07/13/2020 15:01:21 81.40, 3.92 62.66 07/13/2020 15:01:12 81.40, 4.01 62.67 1.60 9
10 07/16/2020 09:45:01 -81.41, -97.21 116.93 07/16/2020 09:46:00 -81.40, -97.31 116.92 1.98 59
